Find Starlink 32009

NORAD ID: 60104 Int'l Des: 2024-117 Owner: SPXS Country: US Constellation: starlink operational
LEOCIRCULAR

現在のビュー

3D地球を読み込み中...

About Starlink 32009

Starlink 32009 (NORAD 60104) is a starlink constellation satellite (v2 mini) launched Jun 23, 2024 by SPXS of US. It operates in LEO, CIRCULAR orbit with a mass of 730.00 kg.

Starlink 32009について

説明を読み込み中...

次回通過

Passes for default location (London). Set your location on the main map for personalized predictions.

高度履歴

Loading altitude history...

軌道要素

1 60104U 24117P 26171.41668980 -.00005295 00000-0 -14585-3 0 9994
2 60104 53.1599 280.1619 0001637 93.2513 184.5438 15.34363145 5892
Epoch: Jun 20, 2026 • Age: 24 hours

現在のステータス

高度 463.1 km
速度 7.64 km/s
衛星直下点 24.46°N, 9.14°E
打ち上げ日 Jun 23, 2024
運用期間 1.9 years
タイプ internet

技術仕様

分類 Payload
質量 730.00 kg
乾燥質量 700.00 kg
総質量 730.00 kg
長さ 0.30 m
直径 4.10 m
スパン 29.00 m
形状 Box + pan
製造者 SPXS
バスタイプ Starlink V2M
フェーズステータス In Orbit
所有者/国 SPXS/US

Most Searched